Tracking 17636 objects as of 30-April-2016
HD Live streaming from Space Station
objects crossing your sky now

MAQSAT H

Track MAQSAT H now!
10-day predictions
MAQSAT H is classified as:


NORAD ID: 25023
Int'l Code: 1997-066A
Perigee: 590.9 km
Apogee: 26,407.2 km
Inclination: 7.7 °
Period: 464.6 minutes
Semi major axis: 19870 km
RCS: 21.0323 m2 (large)
Launch date: October 30, 1997
Source: European Space Agency (ESA)
Launch site: FRENCH GUIANA (FRGUI)
Your satellite tracking list
Your tracking list is empty





NASA's NSSDC Master Catalog

Two Line Element Set (TLE):
1 25023U 97066A   16119.45171874 -.00000135 +00000-0 -10130-2 0  9993
2 25023 007.6840 251.1127 6496307 036.3502 303.9013 03.09959424209007
Source of the keplerian elements: AFSPC

N2YO: 275